Time,TemperatureF,DewpointF,PressureIn,WindDirection,WindDirectionDegrees,WindSpeedMPH,WindSpeedGustMPH,Humidity,HourlyPrecipIn,Conditions,Clouds,dailyrainin,SoftwareType,DateUTC
2013-09-24 00:00:00,56.8,48.2,30.01,SSE,155,0.0,5.0,73,0.00,,CLR,0.00,VWS V14.01,2013-09-24 05:00:00,
2013-09-24 00:03:00,56.6,48.1,30.01,SE,145,2.0,4.0,73,0.00,,CLR,0.00,VWS V14.01,2013-09-24 05:03:00,
2013-09-24 00:09:00,56.5,48.3,30.01,SE,142,1.0,3.0,74,0.00,,CLR,0.00,VWS V14.01,2013-09-24 05:09:00,
2013-09-24 00:10:00,56.5,48.3,30.01,SE,131,1.0,4.0,74,0.00,,CLR,0.00,VWS V14.01,2013-09-24 05:10:00,
2013-09-24 00:14:00,56.4,48.2,30.01,ESE,122,1.0,4.0,74,0.00,,CLR,0.00,VWS V14.01,2013-09-24 05:14:00,
2013-09-24 00:19:00,56.3,48.5,30.01,SE,124,1.0,3.0,75,0.00,,CLR,0.00,VWS V14.01,2013-09-24 05:19:00,
2013-09-24 00:20:00,56.3,48.1,30.01,ESE,113,1.0,4.0,74,0.00,,CLR,0.00,VWS V14.01,2013-09-24 05:20:00,
2013-09-24 00:24:00,56.1,48.3,30.01,ENE,77,1.0,4.0,75,0.00,,CLR,0.00,VWS V14.01,2013-09-24 05:24:00,
2013-09-24 00:29:00,56.1,48.3,30.01,SE,136,2.0,3.0,75,0.00,,CLR,0.00,VWS V14.01,2013-09-24 05:29:00,
2013-09-24 00:30:00,56.1,48.3,30.01,SE,139,1.0,4.0,75,0.00,,CLR,0.00,VWS V14.01,2013-09-24 05:30:00,
2013-09-24 00:34:00,56.1,48.3,30.01,ESE,120,2.0,3.0,75,0.00,,CLR,0.00,VWS V14.01,2013-09-24 05:34:00,
2013-09-24 00:39:00,55.9,48.1,30.01,SE,137,0.0,1.0,75,0.00,,CLR,0.00,VWS V14.01,2013-09-24 05:39:00,
2013-09-24 00:40:00,56.0,48.2,30.01,SSE,155,1.0,3.0,75,0.00,,CLR,0.00,VWS V14.01,2013-09-24 05:40:00,
2013-09-24 00:44:00,55.7,48.3,30.01,NE,54,1.0,3.0,76,0.00,,CLR,0.00,VWS V14.01,2013-09-24 05:44:00,
2013-09-24 00:49:00,55.4,48.3,30.01,SE,139,0.0,1.0,77,0.00,,CLR,0.00,VWS V14.01,2013-09-24 05:49:00,
2013-09-24 00:50:00,55.5,48.4,30.01,SE,139,0.0,4.0,77,0.00,,CLR,0.00,VWS V14.01,2013-09-24 05:50:00,
2013-09-24 00:54:00,55.0,47.9,30.01,SE,139,1.0,4.0,77,0.00,,CLR,0.00,VWS V14.01,2013-09-24 05:54:00,
2013-09-24 00:59:00,54.7,48.0,30.01,ESE,113,1.0,1.0,78,0.00,,CLR,0.00,VWS V14.01,2013-09-24 05:59:00,
2013-09-24 01:00:00,54.8,48.1,30.01,ESE,115,0.0,4.0,78,0.00,,CLR,0.00,VWS V14.01,2013-09-24 06:00:00,
2013-09-24 01:04:00,54.4,48.0,30.01,SSE,155,0.0,3.0,79,0.00,,CLR,0.00,VWS V14.01,2013-09-24 06:04:00,
2013-09-24 01:09:00,54.3,47.9,30.01,SE,145,0.0,1.0,79,0.00,,CLR,0.00,VWS V14.01,2013-09-24 06:09:00,
2013-09-24 01:10:00,54.3,47.9,30.01,ESE,114,1.0,3.0,79,0.00,,CLR,0.00,VWS V14.01,2013-09-24 06:10:00,
2013-09-24 01:14:00,54.2,47.8,30.01,SSE,162,0.0,2.0,79,0.00,,CLR,0.00,VWS V14.01,2013-09-24 06:14:00,
2013-09-24 01:19:00,54.1,48.1,30.01,SSE,160,1.0,1.0,80,0.00,,CLR,0.00,VWS V14.01,2013-09-24 06:19:00,
2013-09-24 01:20:00,54.2,48.2,30.02,SSE,162,0.0,2.0,80,0.00,,CLR,0.00,VWS V14.01,2013-09-24 06:20:00,
2013-09-24 01:24:00,54.1,48.1,30.02,South,169,0.0,2.0,80,0.00,,CLR,0.00,VWS V14.01,2013-09-24 06:24:00,
2013-09-24 01:29:00,54.1,48.1,30.02,SE,137,0.0,1.0,80,0.00,,CLR,0.00,VWS V14.01,2013-09-24 06:29:00,
2013-09-24 01:30:00,54.1,48.1,30.02,SE,143,0.0,2.0,80,0.00,,CLR,0.00,VWS V14.01,2013-09-24 06:30:00,
2013-09-24 01:34:00,54.1,48.1,30.02,SE,124,0.0,2.0,80,0.00,,CLR,0.00,VWS V14.01,2013-09-24 06:34:00,
2013-09-24 01:39:00,53.9,48.2,30.02,South,180,1.0,2.0,81,0.00,,CLR,0.00,VWS V14.01,2013-09-24 06:39:00,
2013-09-24 01:40:00,53.9,47.9,30.02,SE,139,0.0,2.0,80,0.00,,CLR,0.00,VWS V14.01,2013-09-24 06:40:00,
2013-09-24 01:45:00,53.8,48.1,30.02,SSE,147,0.0,3.0,81,0.00,,CLR,0.00,VWS V14.01,2013-09-24 06:45:00,
2013-09-24 01:50:00,53.7,48.0,30.02,SSE,156,0.0,2.0,81,0.00,,CLR,0.00,VWS V14.01,2013-09-24 06:50:00,
2013-09-24 01:55:00,53.6,47.9,30.02,SSW,200,1.0,2.0,81,0.00,,CLR,0.00,VWS V14.01,2013-09-24 06:55:00,
2013-09-24 02:00:00,53.4,47.7,30.01,SSW,193,0.0,1.0,81,0.00,,CLR,0.00,VWS V14.01,2013-09-24 07:00:00,
2013-09-24 02:05:00,53.3,48.0,30.01,SSE,152,1.0,3.0,82,0.00,,CLR,0.00,VWS V14.01,2013-09-24 07:05:00,
2013-09-24 02:10:00,53.2,47.9,30.01,SE,142,1.0,4.0,82,0.00,,CLR,0.00,VWS V14.01,2013-09-24 07:10:00,
2013-09-24 02:15:00,53.2,47.9,30.01,ESE,118,3.0,4.0,82,0.00,,CLR,0.00,VWS V14.01,2013-09-24 07:15:00,
2013-09-24 02:20:00,53.1,48.1,30.01,SSE,150,0.0,3.0,83,0.00,,CLR,0.00,VWS V14.01,2013-09-24 07:20:00,
2013-09-24 02:25:00,53.0,48.0,30.01,East,101,0.0,3.0,83,0.00,,CLR,0.00,VWS V14.01,2013-09-24 07:25:00,
2013-09-24 02:30:00,52.9,47.9,30.01,South,169,1.0,3.0,83,0.00,,CLR,0.00,VWS V14.01,2013-09-24 07:30:00,
2013-09-24 02:35:00,52.8,47.8,30.01,SSE,150,3.0,3.0,83,0.00,,CLR,0.00,VWS V14.01,2013-09-24 07:35:00,
2013-09-24 02:40:00,52.8,47.8,30.01,ESE,117,2.0,3.0,83,0.00,,CLR,0.00,VWS V14.01,2013-09-24 07:40:00,
2013-09-24 02:45:00,52.6,47.9,30.01,SE,146,1.0,4.0,84,0.00,,CLR,0.00,VWS V14.01,2013-09-24 07:45:00,
2013-09-24 02:50:00,52.5,47.8,30.01,SSE,151,0.0,3.0,84,0.00,,CLR,0.00,VWS V14.01,2013-09-24 07:50:00,
2013-09-24 02:55:00,52.4,47.7,30.01,ESE,106,1.0,5.0,84,0.00,,CLR,0.00,VWS V14.01,2013-09-24 07:55:00,
2013-09-24 03:00:00,52.4,47.7,30.01,SE,143,1.0,3.0,84,0.00,,CLR,0.00,VWS V14.01,2013-09-24 08:00:00,
2013-09-24 03:06:00,52.3,47.9,30.01,ESE,121,2.0,4.0,85,0.00,,CLR,0.00,VWS V14.01,2013-09-24 08:06:00,
2013-09-24 03:10:00,52.2,47.8,30.01,SE,137,1.0,4.0,85,0.00,,CLR,0.00,VWS V14.01,2013-09-24 08:10:00,
2013-09-24 03:11:00,52.2,47.8,30.01,South,172,1.0,3.0,85,0.00,,CLR,0.00,VWS V14.01,2013-09-24 08:11:00,
2013-09-24 03:16:00,52.4,48.0,30.01,ESE,108,0.0,5.0,85,0.00,,CLR,0.00,VWS V14.01,2013-09-24 08:16:00,
2013-09-24 03:20:00,52.5,48.1,30.01,SE,130,2.0,5.0,85,0.00,,CLR,0.00,VWS V14.01,2013-09-24 08:20:00,
2013-09-24 03:21:00,52.7,48.3,30.01,SE,143,2.0,5.0,85,0.00,,CLR,0.00,VWS V14.01,2013-09-24 08:21:00,
2013-09-24 03:26:00,52.9,48.2,30.01,SE,145,1.0,5.0,84,0.00,,CLR,0.00,VWS V14.01,2013-09-24 08:26:00,
2013-09-24 03:30:00,53.0,48.3,30.01,ESE,122,2.0,5.0,84,0.00,,CLR,0.00,VWS V14.01,2013-09-24 08:30:00,
2013-09-24 03:31:00,53.0,48.3,30.01,SE,143,1.0,3.0,84,0.00,,CLR,0.00,VWS V14.01,2013-09-24 08:31:00,
2013-09-24 03:36:00,53.1,48.4,30.01,SE,143,2.0,5.0,84,0.00,,CLR,0.00,VWS V14.01,2013-09-24 08:36:00,
2013-09-24 03:40:00,53.1,48.4,30.01,SSE,153,1.0,5.0,84,0.00,,CLR,0.00,VWS V14.01,2013-09-24 08:40:00,
2013-09-24 03:41:00,53.1,48.4,30.01,SE,125,2.0,3.0,84,0.00,,CLR,0.00,VWS V14.01,2013-09-24 08:41:00,
2013-09-24 03:46:00,53.0,48.3,30.01,SE,141,1.0,5.0,84,0.00,,CLR,0.00,VWS V14.01,2013-09-24 08:46:00,
2013-09-24 03:50:00,53.0,48.3,30.01,SE,136,1.0,5.0,84,0.00,,CLR,0.00,VWS V14.01,2013-09-24 08:50:00,
2013-09-24 03:51:00,53.0,48.3,30.01,ESE,119,1.0,6.0,84,0.00,,CLR,0.00,VWS V14.01,2013-09-24 08:51:00,
2013-09-24 03:56:00,53.0,48.3,30.01,SSE,148,1.0,6.0,84,0.00,,CLR,0.00,VWS V14.01,2013-09-24 08:56:00,
2013-09-24 04:00:00,53.0,48.3,30.01,South,169,2.0,6.0,84,0.00,,CLR,0.00,VWS V14.01,2013-09-24 09:00:00,
2013-09-24 04:01:00,53.0,48.3,30.01,South,191,1.0,3.0,84,0.00,,CLR,0.00,VWS V14.01,2013-09-24 09:01:00,
2013-09-24 04:06:00,52.9,48.2,30.01,ESE,104,1.0,5.0,84,0.00,,CLR,0.00,VWS V14.01,2013-09-24 09:06:00,
2013-09-24 04:10:00,52.9,48.2,30.01,ESE,112,3.0,5.0,84,0.00,,CLR,0.00,VWS V14.01,2013-09-24 09:10:00,
2013-09-24 04:11:00,52.9,48.5,30.01,ESE,117,3.0,5.0,85,0.00,,CLR,0.00,VWS V14.01,2013-09-24 09:11:00,
2013-09-24 04:16:00,52.8,48.4,30.01,SE,133,1.0,5.0,85,0.00,,CLR,0.00,VWS V14.01,2013-09-24 09:16:00,
2013-09-24 04:20:00,52.8,48.4,30.01,SE,138,1.0,5.0,85,0.00,,CLR,0.00,VWS V14.01,2013-09-24 09:20:00,
2013-09-24 04:21:00,52.8,48.4,30.01,SSE,165,2.0,4.0,85,0.00,,CLR,0.00,VWS V14.01,2013-09-24 09:21:00,
2013-09-24 04:26:00,52.7,48.3,30.01,SE,124,1.0,5.0,85,0.00,,CLR,0.00,VWS V14.01,2013-09-24 09:26:00,
2013-09-24 04:30:00,52.6,48.2,30.01,SSE,160,2.0,5.0,85,0.00,,CLR,0.00,VWS V14.01,2013-09-24 09:30:00,
2013-09-24 04:31:00,52.6,48.2,30.01,SSE,167,2.0,5.0,85,0.00,,CLR,0.00,VWS V14.01,2013-09-24 09:31:00,
2013-09-24 04:36:00,52.6,48.2,30.01,SE,138,1.0,7.0,85,0.00,,CLR,0.00,VWS V14.01,2013-09-24 09:36:00,
2013-09-24 04:40:00,52.6,48.2,30.01,SE,143,0.0,7.0,85,0.00,,CLR,0.00,VWS V14.01,2013-09-24 09:40:00,
2013-09-24 04:42:00,52.6,48.2,30.01,ESE,113,2.0,4.0,85,0.00,,CLR,0.00,VWS V14.01,2013-09-24 09:42:00,
2013-09-24 04:47:00,52.4,48.0,30.01,SE,143,1.0,4.0,85,0.00,,CLR,0.00,VWS V14.01,2013-09-24 09:47:00,
2013-09-24 04:50:00,52.4,48.0,30.01,East,92,2.0,4.0,85,0.00,,CLR,0.00,VWS V14.01,2013-09-24 09:50:00,
2013-09-24 04:52:00,52.2,47.8,30.01,SE,129,2.0,3.0,85,0.00,,CLR,0.00,VWS V14.01,2013-09-24 09:52:00,
2013-09-24 04:57:00,52.1,48.0,30.00,SE,132,2.0,5.0,86,0.00,,CLR,0.00,VWS V14.01,2013-09-24 09:57:00,
2013-09-24 05:00:00,52.1,48.0,30.00,SSE,156,1.0,5.0,86,0.00,,CLR,0.00,VWS V14.01,2013-09-24 10:00:00,
2013-09-24 05:02:00,52.0,48.0,30.00,SE,130,0.0,4.0,86,0.00,,CLR,0.00,VWS V14.01,2013-09-24 10:02:00,
2013-09-24 05:07:00,52.0,48.0,30.00,ESE,110,1.0,4.0,86,0.00,,CLR,0.00,VWS V14.01,2013-09-24 10:07:00,
2013-09-24 05:10:00,52.0,48.0,30.00,ESE,105,2.0,4.0,86,0.00,,CLR,0.00,VWS V14.01,2013-09-24 10:10:00,
2013-09-24 05:12:00,52.0,48.0,30.00,ESE,108,1.0,5.0,86,0.00,,CLR,0.00,VWS V14.01,2013-09-24 10:12:00,
2013-09-24 05:17:00,51.9,47.8,30.00,ESE,103,2.0,5.0,86,0.00,,CLR,0.00,VWS V14.01,2013-09-24 10:17:00,
2013-09-24 05:20:00,51.8,47.8,30.00,SE,136,2.0,5.0,86,0.00,,CLR,0.00,VWS V14.01,2013-09-24 10:20:00,
2013-09-24 05:22:00,51.7,47.7,30.00,SSE,151,3.0,5.0,86,0.00,,CLR,0.00,VWS V14.01,2013-09-24 10:22:00,
2013-09-24 05:27:00,51.4,47.4,30.00,East,101,3.0,5.0,86,0.00,,CLR,0.00,VWS V14.01,2013-09-24 10:27:00,
2013-09-24 05:30:00,51.4,47.4,30.01,ESE,120,1.0,5.0,86,0.00,,CLR,0.00,VWS V14.01,2013-09-24 10:30:00,
2013-09-24 05:32:00,51.1,47.4,30.01,East,79,2.0,4.0,87,0.00,,CLR,0.00,VWS V14.01,2013-09-24 10:32:00,
2013-09-24 05:37:00,50.9,47.2,30.01,SSE,158,1.0,5.0,87,0.00,,CLR,0.00,VWS V14.01,2013-09-24 10:37:00,
2013-09-24 05:40:00,50.9,47.2,30.01,East,98,3.0,5.0,87,0.00,,CLR,0.00,VWS V14.01,2013-09-24 10:40:00,
2013-09-24 05:42:00,50.7,47.0,30.01,East,96,1.0,4.0,87,0.00,,CLR,0.00,VWS V14.01,2013-09-24 10:42:00,
2013-09-24 05:47:00,50.5,47.1,30.01,SE,146,3.0,4.0,88,0.00,,CLR,0.00,VWS V14.01,2013-09-24 10:47:00,
2013-09-24 05:50:00,50.5,47.1,30.01,ENE,72,2.0,4.0,88,0.00,,CLR,0.00,VWS V14.01,2013-09-24 10:50:00,
2013-09-24 05:52:00,50.4,47.0,30.01,South,169,1.0,5.0,88,0.00,,CLR,0.00,VWS V14.01,2013-09-24 10:52:00,
2013-09-24 05:57:00,50.3,46.9,30.01,ESE,105,1.0,5.0,88,0.00,,CLR,0.00,VWS V14.01,2013-09-24 10:57:00,
2013-09-24 06:00:00,50.3,46.9,30.01,ENE,63,3.0,5.0,88,0.00,,CLR,0.00,VWS V14.01,2013-09-24 11:00:00,
2013-09-24 06:03:00,50.2,46.8,30.01,ESE,115,1.0,5.0,88,0.00,,CLR,0.00,VWS V14.01,2013-09-24 11:03:00,
2013-09-24 06:08:00,50.1,46.7,30.01,ESE,106,1.0,5.0,88,0.00,,CLR,0.00,VWS V14.01,2013-09-24 11:08:00,
2013-09-24 06:10:00,50.1,46.7,30.01,East,97,1.0,5.0,88,0.00,,CLR,0.00,VWS V14.01,2013-09-24 11:10:00,
2013-09-24 06:13:00,50.0,46.9,30.01,ESE,120,2.0,5.0,89,0.00,,CLR,0.00,VWS V14.01,2013-09-24 11:13:00,
2013-09-24 06:18:00,49.9,46.8,30.01,SE,141,2.0,5.0,89,0.00,,CLR,0.00,VWS V14.01,2013-09-24 11:18:00,
2013-09-24 06:20:00,49.9,46.8,30.01,SE,141,2.0,5.0,89,0.00,,CLR,0.00,VWS V14.01,2013-09-24 11:20:00,
2013-09-24 06:23:00,49.7,46.6,30.01,SSE,148,2.0,4.0,89,0.00,,CLR,0.00,VWS V14.01,2013-09-24 11:23:00,
2013-09-24 06:28:00,49.7,46.6,30.01,East,90,0.0,7.0,89,0.00,,CLR,0.00,VWS V14.01,2013-09-24 11:28:00,
2013-09-24 06:30:00,49.7,46.6,30.01,East,90,0.0,7.0,89,0.00,,CLR,0.00,VWS V14.01,2013-09-24 11:30:00,
2013-09-24 06:33:00,49.5,46.4,30.01,ENE,67,4.0,4.0,89,0.00,,CLR,0.00,VWS V14.01,2013-09-24 11:33:00,
2013-09-24 06:38:00,49.3,46.2,30.01,ESE,106,2.0,3.0,89,0.00,,CLR,0.00,VWS V14.01,2013-09-24 11:38:00,
2013-09-24 06:40:00,49.3,46.2,30.01,East,97,2.0,4.0,89,0.00,,CLR,0.00,VWS V14.01,2013-09-24 11:40:00,
2013-09-24 06:43:00,49.2,46.1,30.01,ESE,112,1.0,4.0,89,0.00,,CLR,0.00,VWS V14.01,2013-09-24 11:43:00,
2013-09-24 06:48:00,48.9,45.8,30.01,SW,215,0.0,2.0,89,0.00,,CLR,0.00,VWS V14.01,2013-09-24 11:48:00,
2013-09-24 06:50:00,48.9,45.8,30.01,ESE,108,2.0,4.0,89,0.00,,CLR,0.00,VWS V14.01,2013-09-24 11:50:00,
2013-09-24 06:53:00,48.7,45.9,30.01,SSE,157,1.0,3.0,90,0.00,,CLR,0.00,VWS V14.01,2013-09-24 11:53:00,
2013-09-24 06:58:00,48.6,45.8,30.01,East,79,2.0,3.0,90,0.00,,CLR,0.00,VWS V14.01,2013-09-24 11:58:00,
2013-09-24 07:00:00,48.6,45.8,30.01,SE,146,3.0,3.0,90,0.00,,CLR,0.00,VWS V14.01,2013-09-24 12:00:00,
2013-09-24 07:03:00,48.5,45.7,30.01,East,88,2.0,4.0,90,0.00,,CLR,0.00,VWS V14.01,2013-09-24 12:03:00,
2013-09-24 07:08:00,48.5,45.7,30.01,SSE,153,0.0,2.0,90,0.00,,CLR,0.00,VWS V14.01,2013-09-24 12:08:00,
2013-09-24 07:10:00,48.5,45.7,30.01,East,99,2.0,5.0,90,0.00,,CLR,0.00,VWS V14.01,2013-09-24 12:10:00,
2013-09-24 07:13:00,48.5,46.0,30.01,SE,146,4.0,5.0,91,0.00,,CLR,0.00,VWS V14.01,2013-09-24 12:13:00,
2013-09-24 07:18:00,48.6,46.1,30.01,ESE,103,2.0,4.0,91,0.00,,CLR,0.00,VWS V14.01,2013-09-24 12:18:00,
2013-09-24 07:20:00,48.5,46.0,30.01,ESE,107,4.0,5.0,91,0.00,,CLR,0.00,VWS V14.01,2013-09-24 12:20:00,
2013-09-24 07:23:00,48.7,46.2,30.01,SE,134,2.0,4.0,91,0.00,,CLR,0.00,VWS V14.01,2013-09-24 12:23:00,
2013-09-24 07:28:00,48.9,46.1,30.01,ESE,106,3.0,4.0,90,0.00,,CLR,0.00,VWS V14.01,2013-09-24 12:28:00,
2013-09-24 07:30:00,48.8,46.0,30.01,SE,128,2.0,6.0,90,0.00,,CLR,0.00,VWS V14.01,2013-09-24 12:30:00,
2013-09-24 07:34:00,49.5,46.7,30.01,ESE,108,3.0,8.0,90,0.00,,CLR,0.00,VWS V14.01,2013-09-24 12:34:00,
2013-09-24 07:39:00,50.0,46.9,30.00,SE,141,5.0,5.0,89,0.00,,CLR,0.00,VWS V14.01,2013-09-24 12:39:00,
2013-09-24 07:40:00,49.9,46.8,30.00,SSE,153,3.0,8.0,89,0.00,,CLR,0.00,VWS V14.01,2013-09-24 12:40:00,
2013-09-24 07:44:00,50.3,46.9,30.01,SE,142,3.0,7.0,88,0.00,,CLR,0.00,VWS V14.01,2013-09-24 12:44:00,
2013-09-24 07:49:00,50.8,47.4,30.00,East,91,1.0,4.0,88,0.00,,CLR,0.00,VWS V14.01,2013-09-24 12:49:00,
2013-09-24 07:50:00,50.6,47.2,30.01,ESE,105,3.0,7.0,88,0.00,,CLR,0.00,VWS V14.01,2013-09-24 12:50:00,
2013-09-24 07:54:00,51.2,47.5,30.00,SE,142,4.0,6.0,87,0.00,,CLR,0.00,VWS V14.01,2013-09-24 12:54:00,
2013-09-24 07:59:00,51.6,47.6,30.01,SE,124,4.0,4.0,86,0.00,,CLR,0.00,VWS V14.01,2013-09-24 12:59:00,
2013-09-24 08:00:00,51.5,47.5,30.00,SE,128,3.0,7.0,86,0.00,,CLR,0.00,VWS V14.01,2013-09-24 13:00:00,
2013-09-24 08:04:00,52.0,48.0,30.01,ENE,78,4.0,7.0,86,0.00,,CLR,0.00,VWS V14.01,2013-09-24 13:04:00,
2013-09-24 08:09:00,52.5,48.1,30.01,SE,137,4.0,6.0,85,0.00,,CLR,0.00,VWS V14.01,2013-09-24 13:09:00,
2013-09-24 08:10:00,52.4,48.0,30.01,ESE,113,3.0,9.0,85,0.00,,CLR,0.00,VWS V14.01,2013-09-24 13:10:00,
2013-09-24 08:14:00,53.0,48.6,30.01,East,91,1.0,7.0,85,0.00,,CLR,0.00,VWS V14.01,2013-09-24 13:14:00,
2013-09-24 08:19:00,53.4,48.7,30.00,ESE,121,5.0,8.0,84,0.00,,CLR,0.00,VWS V14.01,2013-09-24 13:19:00,
2013-09-24 08:20:00,53.3,48.6,30.00,SSE,163,3.0,7.0,84,0.00,,CLR,0.00,VWS V14.01,2013-09-24 13:20:00,
2013-09-24 08:24:00,53.6,48.6,30.00,SE,127,3.0,10.0,83,0.00,,CLR,0.00,VWS V14.01,2013-09-24 13:24:00,
2013-09-24 08:29:00,54.1,49.1,30.00,SE,142,4.0,9.0,83,0.00,,CLR,0.00,VWS V14.01,2013-09-24 13:29:00,
2013-09-24 08:30:00,53.9,49.2,30.01,South,177,4.0,10.0,84,0.00,,CLR,0.00,VWS V14.01,2013-09-24 13:30:00,
2013-09-24 08:34:00,54.7,49.7,30.01,East,96,2.0,9.0,83,0.00,,CLR,0.00,VWS V14.01,2013-09-24 13:34:00,
2013-09-24 08:39:00,55.1,49.7,30.00,ESE,120,5.0,9.0,82,0.00,,CLR,0.00,VWS V14.01,2013-09-24 13:39:00,
2013-09-24 08:40:00,55.1,49.7,30.01,ESE,121,9.0,9.0,82,0.00,,OVC018,0.00,VWS V14.01,2013-09-24 13:40:00,
2013-09-24 08:44:00,55.6,50.2,30.00,SSE,151,2.0,9.0,82,0.00,,CLR,0.00,VWS V14.01,2013-09-24 13:44:00,
2013-09-24 08:49:00,56.2,50.5,30.00,South,189,1.0,5.0,81,0.00,,CLR,0.00,VWS V14.01,2013-09-24 13:49:00,
2013-09-24 08:50:00,56.1,50.4,30.00,SSW,204,2.0,9.0,81,0.00,,CLR,0.00,VWS V14.01,2013-09-24 13:50:00,
2013-09-24 08:54:00,56.8,51.0,30.00,South,184,1.0,7.0,81,0.00,,CLR,0.00,VWS V14.01,2013-09-24 13:54:00,
2013-09-24 08:59:00,57.4,51.3,30.00,SSE,163,3.0,6.0,80,0.00,,CLR,0.00,VWS V14.01,2013-09-24 13:59:00,
2013-09-24 09:00:00,57.3,51.2,30.00,SE,139,5.0,7.0,80,0.00,,CLR,0.00,VWS V14.01,2013-09-24 14:00:00,
2013-09-24 09:04:00,57.9,51.4,30.00,ESE,122,2.0,7.0,79,0.00,,CLR,0.00,VWS V14.01,2013-09-24 14:04:00,
2013-09-24 09:10:00,58.4,51.9,30.00,South,177,2.0,6.0,79,0.00,,CLR,0.00,VWS V14.01,2013-09-24 14:10:00,
2013-09-24 09:15:00,59.1,52.3,29.99,ESE,115,3.0,6.0,78,0.00,,CLR,0.00,VWS V14.01,2013-09-24 14:15:00,
2013-09-24 09:20:00,59.5,52.6,30.00,SE,143,2.0,3.0,78,0.00,,CLR,0.00,VWS V14.01,2013-09-24 14:20:00,
2013-09-24 09:25:00,60.0,52.4,30.00,South,190,3.0,8.0,76,0.00,,CLR,0.00,VWS V14.01,2013-09-24 14:25:00,
2013-09-24 09:30:00,60.5,52.9,30.00,SSE,162,6.0,6.0,76,0.00,,CLR,0.00,VWS V14.01,2013-09-24 14:30:00,
2013-09-24 09:35:00,61.1,53.5,30.00,ESE,121,3.0,6.0,76,0.00,,CLR,0.00,VWS V14.01,2013-09-24 14:35:00,
2013-09-24 09:40:00,61.6,54.0,29.99,East,92,2.0,4.0,76,0.00,,CLR,0.00,VWS V14.01,2013-09-24 14:40:00,
2013-09-24 09:45:00,62.3,53.9,29.99,East,93,7.0,7.0,74,0.00,,CLR,0.00,VWS V14.01,2013-09-24 14:45:00,
2013-09-24 09:50:00,62.4,54.0,29.99,SSE,165,3.0,6.0,74,0.00,,CLR,0.00,VWS V14.01,2013-09-24 14:50:00,
2013-09-24 09:55:00,62.8,54.0,29.99,SW,232,0.0,7.0,73,0.00,,CLR,0.00,VWS V14.01,2013-09-24 14:55:00,
2013-09-24 10:00:00,63.2,54.4,29.99,East,82,3.0,5.0,73,0.00,,CLR,0.00,VWS V14.01,2013-09-24 15:00:00,
2013-09-24 10:05:00,63.7,54.5,29.99,SE,141,3.0,7.0,72,0.00,,CLR,0.00,VWS V14.01,2013-09-24 15:05:00,
2013-09-24 10:10:00,64.2,55.0,29.99,ENE,59,2.0,4.0,72,0.00,,CLR,0.00,VWS V14.01,2013-09-24 15:10:00,
2013-09-24 10:15:00,64.7,55.5,29.99,SE,141,1.0,6.0,72,0.00,,CLR,0.00,VWS V14.01,2013-09-24 15:15:00,
2013-09-24 10:20:00,65.3,55.7,29.99,ESE,113,6.0,6.0,71,0.00,,CLR,0.00,VWS V14.01,2013-09-24 15:20:00,
2013-09-24 10:25:00,65.4,55.4,29.99,East,83,1.0,8.0,70,0.00,,CLR,0.00,VWS V14.01,2013-09-24 15:25:00,
2013-09-24 10:30:00,65.6,55.6,29.99,East,86,4.0,8.0,70,0.00,,CLR,0.00,VWS V14.01,2013-09-24 15:30:00,
2013-09-24 10:31:00,66.0,56.0,29.99,East,83,3.0,5.0,70,0.00,,CLR,0.00,VWS V14.01,2013-09-24 15:31:00,
2013-09-24 10:36:00,67.0,55.7,29.99,SE,146,2.0,6.0,67,0.00,,CLR,0.00,VWS V14.01,2013-09-24 15:36:00,
2013-09-24 10:40:00,67.3,56.4,29.98,South,186,0.0,6.0,68,0.00,,CLR,0.00,VWS V14.01,2013-09-24 15:40:00,
2013-09-24 10:41:00,67.6,56.3,29.98,South,173,3.0,6.0,67,0.00,,CLR,0.00,VWS V14.01,2013-09-24 15:41:00,
2013-09-24 10:46:00,68.1,56.3,29.98,SE,134,1.0,6.0,66,0.00,,CLR,0.00,VWS V14.01,2013-09-24 15:46:00,
2013-09-24 10:50:00,68.4,56.2,29.98,SSW,195,1.0,6.0,65,0.00,,CLR,0.00,VWS V14.01,2013-09-24 15:50:00,
2013-09-24 10:51:00,68.5,55.9,29.98,ESE,110,3.0,5.0,64,0.00,,CLR,0.00,VWS V14.01,2013-09-24 15:51:00,
2013-09-24 10:56:00,68.9,56.2,29.98,South,181,2.0,5.0,64,0.00,,CLR,0.00,VWS V14.01,2013-09-24 15:56:00,
2013-09-24 11:00:00,69.2,57.0,29.98,SSW,200,1.0,5.0,65,0.00,,CLR,0.00,VWS V14.01,2013-09-24 16:00:00,
2013-09-24 11:01:00,69.6,56.5,29.98,SE,128,2.0,5.0,63,0.00,,CLR,0.00,VWS V14.01,2013-09-24 16:01:00,
2013-09-24 11:06:00,69.8,56.2,29.98,ESE,113,3.0,6.0,62,0.00,,CLR,0.00,VWS V14.01,2013-09-24 16:06:00,
2013-09-24 11:10:00,69.8,56.2,29.98,ESE,110,2.0,6.0,62,0.00,,CLR,0.00,VWS V14.01,2013-09-24 16:10:00,
2013-09-24 11:11:00,70.0,56.4,29.98,SE,142,2.0,5.0,62,0.00,,CLR,0.00,VWS V14.01,2013-09-24 16:11:00,
2013-09-24 11:16:00,71.0,56.9,29.97,SE,129,5.0,7.0,61,0.00,,CLR,0.00,VWS V14.01,2013-09-24 16:16:00,
2013-09-24 11:20:00,71.1,56.1,29.97,SSE,155,3.0,7.0,59,0.00,,CLR,0.00,VWS V14.01,2013-09-24 16:20:00,
2013-09-24 11:21:00,71.3,56.2,29.97,South,179,4.0,6.0,59,0.00,,CLR,0.00,VWS V14.01,2013-09-24 16:21:00,
2013-09-24 11:26:00,71.7,56.2,29.97,ESE,110,2.0,7.0,58,0.00,,CLR,0.00,VWS V14.01,2013-09-24 16:26:00,
2013-09-24 11:30:00,71.6,55.6,29.97,East,81,7.0,8.0,57,0.00,,CLR,0.00,VWS V14.01,2013-09-24 16:30:00,
2013-09-24 11:31:00,71.4,55.9,29.97,SW,217,1.0,9.0,58,0.00,,CLR,0.00,VWS V14.01,2013-09-24 16:31:00,
2013-09-24 11:36:00,71.8,55.8,29.97,ESE,118,4.0,9.0,57,0.00,,CLR,0.00,VWS V14.01,2013-09-24 16:36:00,
2013-09-24 11:40:00,72.0,56.4,29.97,ESE,107,5.0,9.0,58,0.00,,CLR,0.00,VWS V14.01,2013-09-24 16:40:00,
2013-09-24 11:42:00,72.2,55.7,29.97,SW,222,2.0,7.0,56,0.00,,CLR,0.00,VWS V14.01,2013-09-24 16:42:00,
2013-09-24 11:47:00,72.4,55.3,29.97,West,264,2.0,7.0,55,0.00,,CLR,0.00,VWS V14.01,2013-09-24 16:47:00,
2013-09-24 11:50:00,72.5,55.4,29.97,SSE,162,2.0,7.0,55,0.00,,CLR,0.00,VWS V14.01,2013-09-24 16:50:00,
2013-09-24 11:52:00,72.9,55.3,29.96,SSE,153,2.0,7.0,54,0.00,,CLR,0.00,VWS V14.01,2013-09-24 16:52:00,
2013-09-24 11:57:00,72.7,55.6,29.96,ESE,109,3.0,7.0,55,0.00,,CLR,0.00,VWS V14.01,2013-09-24 16:57:00,
2013-09-24 12:00:00,72.8,55.7,29.96,SE,129,1.0,7.0,55,0.00,,CLR,0.00,VWS V14.01,2013-09-24 17:00:00,
2013-09-24 12:02:00,73.4,56.3,29.96,WNW,285,3.0,4.0,55,0.00,,CLR,0.00,VWS V14.01,2013-09-24 17:02:00,
2013-09-24 12:07:00,74.0,55.8,29.96,SW,235,2.0,5.0,53,0.00,,CLR,0.00,VWS V14.01,2013-09-24 17:07:00,
2013-09-24 12:10:00,74.1,55.9,29.96,West,259,3.0,5.0,53,0.00,,CLR,0.00,VWS V14.01,2013-09-24 17:10:00,
2013-09-24 12:12:00,74.2,55.5,29.96,SE,146,6.0,9.0,52,0.00,,CLR,0.00,VWS V14.01,2013-09-24 17:12:00,
2013-09-24 12:17:00,73.7,55.5,29.96,South,180,4.0,9.0,53,0.00,,CLR,0.00,VWS V14.01,2013-09-24 17:17:00,
2013-09-24 12:20:00,73.7,55.5,29.96,ESE,123,1.0,9.0,53,0.00,,CLR,0.00,VWS V14.01,2013-09-24 17:20:00,
2013-09-24 12:22:00,73.8,55.1,29.95,SSE,157,2.0,5.0,52,0.00,,CLR,0.00,VWS V14.01,2013-09-24 17:22:00,
2013-09-24 12:27:00,73.7,55.0,29.95,East,92,5.0,9.0,52,0.00,,CLR,0.00,VWS V14.01,2013-09-24 17:27:00,
2013-09-24 12:30:00,73.6,54.9,29.95,ESE,117,4.0,9.0,52,0.00,,CLR,0.00,VWS V14.01,2013-09-24 17:30:00,
2013-09-24 12:32:00,73.5,55.9,29.95,ESE,117,3.0,5.0,54,0.00,,CLR,0.00,VWS V14.01,2013-09-24 17:32:00,
2013-09-24 12:37:00,73.9,55.7,29.95,SW,226,1.0,8.0,53,0.00,,CLR,0.00,VWS V14.01,2013-09-24 17:37:00,
2013-09-24 12:40:00,73.9,55.7,29.95,SE,136,1.0,8.0,53,0.00,,CLR,0.00,VWS V14.01,2013-09-24 17:40:00,
2013-09-24 12:42:00,74.2,56.5,29.95,SE,127,2.0,8.0,54,0.00,,CLR,0.00,VWS V14.01,2013-09-24 17:42:00,
2013-09-24 12:47:00,74.9,55.6,29.95,South,184,3.0,8.0,51,0.00,,CLR,0.00,VWS V14.01,2013-09-24 17:47:00,
2013-09-24 12:50:00,75.0,55.1,29.95,SSE,150,6.0,8.0,50,0.00,,CLR,0.00,VWS V14.01,2013-09-24 17:50:00,
2013-09-24 12:52:00,74.9,55.6,29.95,South,187,3.0,7.0,51,0.00,,CLR,0.00,VWS V14.01,2013-09-24 17:52:00,
2013-09-24 12:58:00,74.9,55.0,29.95,WSW,252,1.0,9.0,50,0.00,,CLR,0.00,VWS V14.01,2013-09-24 17:58:00,
2013-09-24 13:00:00,74.9,55.0,29.95,SW,222,1.0,9.0,50,0.00,,CLR,0.00,VWS V14.01,2013-09-24 18:00:00,
2013-09-24 13:03:00,74.9,55.0,29.95,SSE,163,3.0,7.0,50,0.00,,CLR,0.00,VWS V14.01,2013-09-24 18:03:00,
2013-09-24 13:08:00,74.8,54.4,29.95,West,260,1.0,8.0,49,0.00,,CLR,0.00,VWS V14.01,2013-09-24 18:08:00,
2013-09-24 13:10:00,74.8,54.4,29.95,West,260,1.0,8.0,49,0.00,,CLR,0.00,VWS V14.01,2013-09-24 18:10:00,
2013-09-24 13:13:00,74.7,55.4,29.95,ESE,111,1.0,8.0,51,0.00,,CLR,0.00,VWS V14.01,2013-09-24 18:13:00,
2013-09-24 13:18:00,75.1,54.7,29.94,SE,131,3.0,8.0,49,0.00,,CLR,0.00,VWS V14.01,2013-09-24 18:18:00,
2013-09-24 13:20:00,75.1,54.7,29.94,SE,131,3.0,8.0,49,0.00,,CLR,0.00,VWS V14.01,2013-09-24 18:20:00,
2013-09-24 13:23:00,75.3,54.3,29.94,ESE,109,2.0,8.0,48,0.00,,CLR,0.00,VWS V14.01,2013-09-24 18:23:00,
2013-09-24 13:28:00,75.5,54.5,29.93,ESE,110,5.0,5.0,48,0.00,,CLR,0.00,VWS V14.01,2013-09-24 18:28:00,
2013-09-24 13:30:00,75.5,55.0,29.93,SE,124,5.0,8.0,49,0.00,,CLR,0.00,VWS V14.01,2013-09-24 18:30:00,
2013-09-24 13:33:00,75.4,54.9,29.93,SSE,160,1.0,8.0,49,0.00,,CLR,0.00,VWS V14.01,2013-09-24 18:33:00,
2013-09-24 13:38:00,75.7,55.2,29.93,East,85,3.0,4.0,49,0.00,,CLR,0.00,VWS V14.01,2013-09-24 18:38:00,
2013-09-24 13:40:00,75.7,55.2,29.93,SE,138,3.0,9.0,49,0.00,,CLR,0.00,VWS V14.01,2013-09-24 18:40:00,
2013-09-24 13:43:00,76.1,54.4,29.92,NE,38,1.0,6.0,47,0.00,,CLR,0.00,VWS V14.01,2013-09-24 18:43:00,
2013-09-24 13:48:00,76.4,54.1,29.92,SSE,160,0.0,3.0,46,0.00,,CLR,0.00,VWS V14.01,2013-09-24 18:48:00,
2013-09-24 13:50:00,76.4,54.1,29.92,South,170,3.0,6.0,46,0.00,,CLR,0.00,VWS V14.01,2013-09-24 18:50:00,
2013-09-24 13:53:00,76.2,53.9,29.92,East,98,6.0,11.0,46,0.00,,CLR,0.00,VWS V14.01,2013-09-24 18:53:00,
2013-09-24 13:58:00,76.0,54.3,29.92,SSE,165,4.0,5.0,47,0.00,,CLR,0.00,VWS V14.01,2013-09-24 18:58:00,
2013-09-24 14:00:00,76.0,54.3,29.92,ESE,108,3.0,11.0,47,0.00,,CLR,0.00,VWS V14.01,2013-09-24 19:00:00,
2013-09-24 14:03:00,76.0,54.3,29.91,ESE,109,5.0,8.0,47,0.00,,CLR,0.00,VWS V14.01,2013-09-24 19:03:00,
2013-09-24 14:08:00,75.9,54.8,29.91,ENE,62,2.0,5.0,48,0.00,,CLR,0.00,VWS V14.01,2013-09-24 19:08:00,
2013-09-24 14:10:00,75.8,54.7,29.91,East,84,3.0,8.0,48,0.00,,CLR,0.00,VWS V14.01,2013-09-24 19:10:00,
2013-09-24 14:13:00,75.9,54.2,29.91,SE,127,5.0,10.0,47,0.00,,CLR,0.00,VWS V14.01,2013-09-24 19:13:00,
2013-09-24 14:18:00,75.5,53.3,29.91,SSE,156,5.0,6.0,46,0.00,,CLR,0.00,VWS V14.01,2013-09-24 19:18:00,
2013-09-24 14:20:00,75.6,54.5,29.91,SSE,162,5.0,10.0,48,0.00,,CLR,0.00,VWS V14.01,2013-09-24 19:20:00,
2013-09-24 14:23:00,74.8,53.2,29.91,ESE,113,2.0,8.0,47,0.00,,CLR,0.00,VWS V14.01,2013-09-24 19:23:00,
2013-09-24 14:28:00,74.8,53.2,29.91,SE,143,1.0,5.0,47,0.00,,CLR,0.00,VWS V14.01,2013-09-24 19:28:00,
2013-09-24 14:30:00,74.8,53.2,29.91,SE,134,5.0,8.0,47,0.00,,CLR,0.00,VWS V14.01,2013-09-24 19:30:00,
2013-09-24 14:34:00,75.5,53.9,29.91,East,79,0.0,7.0,47,0.00,,CLR,0.00,VWS V14.01,2013-09-24 19:34:00,
2013-09-24 14:39:00,76.5,54.8,29.91,SSW,198,4.0,6.0,47,0.00,,CLR,0.00,VWS V14.01,2013-09-24 19:39:00,
2013-09-24 14:40:00,76.3,54.0,29.91,SE,134,2.0,7.0,46,0.00,,CLR,0.00,VWS V14.01,2013-09-24 19:40:00,
2013-09-24 14:44:00,77.2,54.2,29.91,SSW,204,2.0,6.0,45,0.00,,CLR,0.00,VWS V14.01,2013-09-24 19:44:00,
2013-09-24 14:49:00,77.1,54.2,29.91,SE,134,6.0,6.0,45,0.00,,CLR,0.00,VWS V14.01,2013-09-24 19:49:00,
2013-09-24 14:50:00,77.1,54.2,29.91,East,98,3.0,6.0,45,0.00,,CLR,0.00,VWS V14.01,2013-09-24 19:50:00,
2013-09-24 14:54:00,76.7,54.4,29.90,NNE,30,3.0,10.0,46,0.00,,CLR,0.00,VWS V14.01,2013-09-24 19:54:00,
2013-09-24 14:59:00,76.2,53.9,29.90,SSE,160,1.0,4.0,46,0.00,,CLR,0.00,VWS V14.01,2013-09-24 19:59:00,
2013-09-24 15:00:00,76.4,53.5,29.91,East,86,3.0,10.0,45,0.00,,CLR,0.00,VWS V14.01,2013-09-24 20:00:00,
2013-09-24 15:04:00,76.1,53.8,29.90,ENE,65,2.0,4.0,46,0.00,,CLR,0.00,VWS V14.01,2013-09-24 20:04:00,
2013-09-24 15:09:00,76.1,54.4,29.90,East,83,1.0,3.0,47,0.00,,CLR,0.00,VWS V14.01,2013-09-24 20:09:00,
2013-09-24 15:10:00,76.1,54.4,29.90,SSE,152,2.0,4.0,47,0.00,,CLR,0.00,VWS V14.01,2013-09-24 20:10:00,
2013-09-24 15:14:00,76.2,53.3,29.90,East,91,2.0,3.0,45,0.00,,CLR,0.00,VWS V14.01,2013-09-24 20:14:00,
2013-09-24 15:19:00,75.6,54.0,29.90,SSE,158,3.0,3.0,47,0.00,,CLR,0.00,VWS V14.01,2013-09-24 20:19:00,
2013-09-24 15:20:00,75.8,53.6,29.90,ESE,111,3.0,7.0,46,0.00,,CLR,0.00,VWS V14.01,2013-09-24 20:20:00,
2013-09-24 15:24:00,75.3,53.1,29.90,SE,132,2.0,5.0,46,0.00,,CLR,0.00,VWS V14.01,2013-09-24 20:24:00,
2013-09-24 15:29:00,74.9,53.3,29.90,SSE,162,2.0,4.0,47,0.00,,CLR,0.00,VWS V14.01,2013-09-24 20:29:00,
2013-09-24 15:30:00,75.0,52.8,29.90,ESE,117,4.0,5.0,46,0.00,,CLR,0.00,VWS V14.01,2013-09-24 20:30:00,
2013-09-24 15:34:00,74.6,53.6,29.90,South,177,1.0,4.0,48,0.00,,CLR,0.00,VWS V14.01,2013-09-24 20:34:00,
2013-09-24 15:39:00,74.4,53.5,29.90,South,174,0.0,1.0,48,0.00,,CLR,0.00,VWS V14.01,2013-09-24 20:39:00,
2013-09-24 15:40:00,74.5,53.5,29.90,SSE,156,1.0,4.0,48,0.00,,CLR,0.00,VWS V14.01,2013-09-24 20:40:00,
2013-09-24 15:44:00,74.4,52.9,29.90,SSW,204,1.0,4.0,47,0.00,,CLR,0.00,VWS V14.01,2013-09-24 20:44:00,
2013-09-24 15:49:00,74.4,52.9,29.90,South,176,1.0,2.0,47,0.00,,CLR,0.00,VWS V14.01,2013-09-24 20:49:00,
2013-09-24 15:50:00,74.4,52.9,29.90,SSE,147,2.0,4.0,47,0.00,,CLR,0.00,VWS V14.01,2013-09-24 20:50:00,
2013-09-24 15:54:00,74.4,53.5,29.90,SE,146,2.0,4.0,48,0.00,,CLR,0.00,VWS V14.01,2013-09-24 20:54:00,
2013-09-24 15:59:00,74.4,52.9,29.90,SSE,163,4.0,6.0,47,0.00,,CLR,0.00,VWS V14.01,2013-09-24 20:59:00,
2013-09-24 16:00:00,74.4,53.5,29.90,SSW,204,3.0,7.0,48,0.00,,CLR,0.00,VWS V14.01,2013-09-24 21:00:00,
2013-09-24 16:05:00,74.2,52.7,29.90,SE,134,3.0,6.0,47,0.00,,CLR,0.00,VWS V14.01,2013-09-24 21:05:00,
2013-09-24 16:10:00,74.1,53.2,29.90,East,96,3.0,3.0,48,0.00,,CLR,0.00,VWS V14.01,2013-09-24 21:10:00,
2013-09-24 16:15:00,74.0,53.7,29.90,SSE,153,2.0,5.0,49,0.00,,CLR,0.00,VWS V14.01,2013-09-24 21:15:00,
2013-09-24 16:20:00,73.9,53.6,29.90,South,169,1.0,2.0,49,0.00,,CLR,0.00,VWS V14.01,2013-09-24 21:20:00,
2013-09-24 16:25:00,73.8,53.5,29.90,ESE,117,1.0,2.0,49,0.00,,CLR,0.00,VWS V14.01,2013-09-24 21:25:00,
2013-09-24 16:30:00,73.6,53.8,29.90,SE,131,2.0,3.0,50,0.00,,CLR,0.00,VWS V14.01,2013-09-24 21:30:00,
2013-09-24 16:35:00,73.4,53.7,29.90,SE,135,1.0,3.0,50,0.00,,CLR,0.00,VWS V14.01,2013-09-24 21:35:00,
2013-09-24 16:40:00,73.3,53.6,29.90,ESE,115,2.0,2.0,50,0.00,,CLR,0.00,VWS V14.01,2013-09-24 21:40:00,
2013-09-24 16:45:00,73.1,54.5,29.90,ESE,109,0.0,4.0,52,0.00,,CLR,0.00,VWS V14.01,2013-09-24 21:45:00,
2013-09-24 16:50:00,72.9,54.8,29.90,SE,124,1.0,2.0,53,0.00,,CLR,0.00,VWS V14.01,2013-09-24 21:50:00,
2013-09-24 16:56:00,72.8,55.2,29.90,East,93,0.0,2.0,54,0.00,,CLR,0.00,VWS V14.01,2013-09-24 21:56:00,
2013-09-24 17:00:00,72.7,55.1,29.90,East,93,0.0,2.0,54,0.00,,CLR,0.00,VWS V14.01,2013-09-24 22:00:00,
2013-09-24 17:01:00,72.6,54.5,29.90,East,101,0.0,0.0,53,0.00,,CLR,0.00,VWS V14.01,2013-09-24 22:01:00,
2013-09-24 17:06:00,72.4,55.3,29.89,ESE,102,0.0,0.0,55,0.00,,CLR,0.00,VWS V14.01,2013-09-24 22:06:00,
2013-09-24 17:10:00,72.4,55.3,29.89,ESE,102,0.0,0.0,55,0.00,,CLR,0.00,VWS V14.01,2013-09-24 22:10:00,
2013-09-24 17:11:00,72.3,55.2,29.89,East,98,0.0,0.0,55,0.00,,CLR,0.00,VWS V14.01,2013-09-24 22:11:00,
2013-09-24 17:16:00,72.4,55.8,29.89,East,96,0.0,0.0,56,0.00,,CLR,0.00,VWS V14.01,2013-09-24 22:16:00,
2013-09-24 17:20:00,72.4,55.8,29.89,ESE,103,1.0,1.0,56,0.00,,CLR,0.00,VWS V14.01,2013-09-24 22:20:00,
2013-09-24 17:21:00,72.5,55.9,29.89,ESE,103,1.0,1.0,56,0.00,,CLR,0.00,VWS V14.01,2013-09-24 22:21:00,
2013-09-24 17:26:00,72.6,55.5,29.89,East,97,1.0,2.0,55,0.00,,CLR,0.00,VWS V14.01,2013-09-24 22:26:00,
2013-09-24 17:30:00,72.6,56.0,29.89,East,101,1.0,2.0,56,0.00,,CLR,0.00,VWS V14.01,2013-09-24 22:30:00,
2013-09-24 17:32:00,72.8,55.7,29.89,ESE,103,0.0,2.0,55,0.00,,CLR,0.00,VWS V14.01,2013-09-24 22:32:00,
2013-09-24 17:37:00,73.0,56.4,29.89,East,97,0.0,2.0,56,0.00,,CLR,0.00,VWS V14.01,2013-09-24 22:37:00,
2013-09-24 17:40:00,73.0,55.9,29.89,East,98,0.0,2.0,55,0.00,,CLR,0.00,VWS V14.01,2013-09-24 22:40:00,
2013-09-24 17:42:00,73.2,56.1,29.89,East,84,0.0,1.0,55,0.00,,CLR,0.00,VWS V14.01,2013-09-24 22:42:00,
2013-09-24 17:47:00,73.4,56.3,29.89,East,84,0.0,1.0,55,0.00,,CLR,0.00,VWS V14.01,2013-09-24 22:47:00,
2013-09-24 17:50:00,73.4,56.3,29.89,East,83,0.0,1.0,55,0.00,,CLR,0.00,VWS V14.01,2013-09-24 22:50:00,
2013-09-24 17:52:00,73.5,55.9,29.89,East,91,0.0,3.0,54,0.00,,CLR,0.00,VWS V14.01,2013-09-24 22:52:00,
2013-09-24 17:57:00,73.5,55.9,29.89,East,92,0.0,3.0,54,0.00,,CLR,0.00,VWS V14.01,2013-09-24 22:57:00,
2013-09-24 18:00:00,73.5,55.9,29.89,East,91,0.0,3.0,54,0.00,,CLR,0.00,VWS V14.01,2013-09-24 23:00:00,
2013-09-24 18:02:00,73.4,55.8,29.89,East,98,1.0,2.0,54,0.00,,-RA,0.00,VWS V14.01,2013-09-24 23:02:00,
2013-09-24 18:07:00,73.4,56.3,29.89,East,98,0.0,2.0,55,0.00,,-RA,0.00,VWS V14.01,2013-09-24 23:07:00,
2013-09-24 18:10:00,73.3,56.2,29.89,East,98,0.0,2.0,55,0.00,,CLR,0.00,VWS V14.01,2013-09-24 23:10:00,
2013-09-24 18:12:00,73.2,56.1,29.89,ESE,115,0.0,1.0,55,0.00,,-RA,0.00,VWS V14.01,2013-09-24 23:12:00,
2013-09-24 18:17:00,73.0,55.9,29.89,ESE,115,0.0,1.0,55,0.00,,-RA,0.00,VWS V14.01,2013-09-24 23:17:00,
2013-09-24 18:20:00,73.0,55.9,29.89,ESE,115,0.0,1.0,55,0.00,,CLR,0.00,VWS V14.01,2013-09-24 23:20:00,
2013-09-24 18:22:00,72.7,55.6,29.89,ESE,115,0.0,1.0,55,0.00,,-RA,0.00,VWS V14.01,2013-09-24 23:22:00,
2013-09-24 18:27:00,72.5,55.9,29.89,ESE,115,0.0,1.0,56,0.00,,-RA,0.00,VWS V14.01,2013-09-24 23:27:00,
2013-09-24 18:30:00,72.5,55.9,29.89,ESE,115,0.0,1.0,56,0.00,,CLR,0.00,VWS V14.01,2013-09-24 23:30:00,
2013-09-24 18:32:00,72.1,55.6,29.89,ESE,115,0.0,0.0,56,0.00,,-RA,0.00,VWS V14.01,2013-09-24 23:32:00,
2013-09-24 18:37:00,71.7,55.2,29.89,ESE,115,0.0,0.0,56,0.00,,-RA,0.00,VWS V14.01,2013-09-24 23:37:00,
2013-09-24 18:40:00,71.7,55.2,29.89,ESE,115,0.0,0.0,56,0.00,,CLR,0.00,VWS V14.01,2013-09-24 23:40:00,
2013-09-24 18:42:00,71.3,55.3,29.89,ESE,115,0.0,0.0,57,0.00,,SCT040,0.00,VWS V14.01,2013-09-24 23:42:00,
2013-09-24 18:47:00,71.1,55.1,29.89,ESE,115,0.0,0.0,57,0.00,,SCT040,0.00,VWS V14.01,2013-09-24 23:47:00,
2013-09-24 18:50:00,71.0,55.0,29.89,ESE,116,0.0,0.0,57,0.00,,CLR,0.00,VWS V14.01,2013-09-24 23:50:00,
2013-09-24 18:53:00,70.7,54.7,29.89,ESE,115,0.0,0.0,57,0.00,,SCT040,0.00,VWS V14.01,2013-09-24 23:53:00,
2013-09-24 18:58:00,70.5,55.0,29.89,ESE,115,0.0,0.0,58,0.00,,SCT040,0.00,VWS V14.01,2013-09-24 23:58:00,
2013-09-24 19:00:00,70.5,55.0,29.89,ESE,115,0.0,0.0,58,0.00,,CLR,0.00,VWS V14.01,2013-09-25 00:00:00,
2013-09-24 19:03:00,70.5,54.5,29.89,ESE,106,0.0,2.0,57,0.00,,CLR,0.00,VWS V14.01,2013-09-25 00:03:00,
2013-09-24 19:08:00,70.4,54.5,29.89,ESE,105,0.0,2.0,57,0.00,,CLR,0.00,VWS V14.01,2013-09-25 00:08:00,
2013-09-24 19:10:00,70.4,54.5,29.89,ESE,105,0.0,2.0,57,0.00,,CLR,0.00,VWS V14.01,2013-09-25 00:10:00,
2013-09-24 19:13:00,70.3,54.8,29.89,ESE,105,0.0,0.0,58,0.00,,CLR,0.00,VWS V14.01,2013-09-25 00:13:00,
2013-09-24 19:18:00,70.1,54.7,29.89,East,86,0.0,0.0,58,0.00,,CLR,0.00,VWS V14.01,2013-09-25 00:18:00,
2013-09-24 19:20:00,70.1,54.7,29.89,East,86,0.0,1.0,58,0.00,,CLR,0.00,VWS V14.01,2013-09-25 00:20:00,
2013-09-24 19:23:00,69.7,54.8,29.89,East,86,0.0,0.0,59,0.00,,CLR,0.00,VWS V14.01,2013-09-25 00:23:00,
2013-09-24 19:28:00,69.4,54.9,29.89,East,86,0.0,0.0,60,0.00,,CLR,0.00,VWS V14.01,2013-09-25 00:28:00,
2013-09-24 19:30:00,69.4,54.9,29.89,East,86,0.0,0.0,60,0.00,,CLR,0.00,VWS V14.01,2013-09-25 00:30:00,
2013-09-24 19:33:00,69.0,55.0,29.89,East,86,0.0,0.0,61,0.00,,CLR,0.00,VWS V14.01,2013-09-25 00:33:00,
2013-09-24 19:38:00,68.8,54.8,29.89,East,86,0.0,0.0,61,0.00,,CLR,0.00,VWS V14.01,2013-09-25 00:38:00,
2013-09-24 19:40:00,68.8,54.8,29.89,East,86,0.0,0.0,61,0.00,,CLR,0.00,VWS V14.01,2013-09-25 00:40:00,
2013-09-24 19:43:00,68.7,54.7,29.89,East,86,0.0,0.0,61,0.00,,CLR,0.00,VWS V14.01,2013-09-25 00:43:00,
2013-09-24 19:48:00,68.8,54.8,29.89,East,86,0.0,0.0,61,0.00,,CLR,0.00,VWS V14.01,2013-09-25 00:48:00,
2013-09-24 19:50:00,68.8,54.8,29.89,East,86,0.0,0.0,61,0.00,,CLR,0.00,VWS V14.01,2013-09-25 00:50:00,
2013-09-24 19:53:00,68.8,54.8,29.89,East,84,0.0,0.0,61,0.00,,CLR,0.00,VWS V14.01,2013-09-25 00:53:00,
2013-09-24 19:58:00,68.7,54.7,29.89,East,93,0.0,0.0,61,0.00,,CLR,0.00,VWS V14.01,2013-09-25 00:58:00,
2013-09-24 20:00:00,68.7,54.7,29.89,ENE,61,0.0,1.0,61,0.00,,CLR,0.00,VWS V14.01,2013-09-25 01:00:00,
2013-09-24 20:03:00,68.8,54.4,29.89,East,93,0.0,4.0,60,0.00,,SCT065,0.00,VWS V14.01,2013-09-25 01:03:00,
2013-09-24 20:08:00,68.9,54.5,29.89,East,89,0.0,0.0,60,0.00,,SCT065,0.00,VWS V14.01,2013-09-25 01:08:00,
2013-09-24 20:10:00,68.8,54.4,29.89,East,89,0.0,4.0,60,0.00,,CLR,0.00,VWS V14.01,2013-09-25 01:10:00,
2013-09-24 20:14:00,68.8,53.9,29.89,East,92,2.0,4.0,59,0.00,,SCT065,0.00,VWS V14.01,2013-09-25 01:14:00,
2013-09-24 20:19:00,68.8,53.9,29.89,East,79,0.0,2.0,59,0.00,,SCT065,0.00,VWS V14.01,2013-09-25 01:19:00,
2013-09-24 20:20:00,68.8,53.4,29.89,East,93,2.0,4.0,58,0.00,,CLR,0.00,VWS V14.01,2013-09-25 01:20:00,
2013-09-24 20:24:00,68.7,53.3,29.89,East,84,1.0,5.0,58,0.00,,SCT065,0.00,VWS V14.01,2013-09-25 01:24:00,
2013-09-24 20:29:00,68.4,53.5,29.89,East,82,2.0,4.0,59,0.00,,SCT065,0.00,VWS V14.01,2013-09-25 01:29:00,
2013-09-24 20:30:00,68.5,53.6,29.89,NE,43,0.0,5.0,59,0.00,,CLR,0.00,VWS V14.01,2013-09-25 01:30:00,
2013-09-24 20:34:00,68.3,53.4,29.89,ENE,63,0.0,6.0,59,0.00,,SCT065,0.00,VWS V14.01,2013-09-25 01:34:00,
2013-09-24 20:39:00,68.0,53.2,29.89,NE,49,3.0,5.0,59,0.00,,SCT065,0.00,VWS V14.01,2013-09-25 01:39:00,
2013-09-24 20:40:00,68.0,53.6,29.89,ESE,106,3.0,6.0,60,0.00,,CLR,0.00,VWS V14.01,2013-09-25 01:40:00,
2013-09-24 20:44:00,67.8,53.4,29.89,NE,34,0.0,6.0,60,0.00,,SCT065,0.00,VWS V14.01,2013-09-25 01:44:00,
2013-09-24 20:49:00,67.4,53.0,29.89,East,80,5.0,6.0,60,0.00,,SCT065,0.00,VWS V14.01,2013-09-25 01:49:00,
2013-09-24 20:50:00,67.5,53.1,29.89,North,6,1.0,6.0,60,0.00,,CLR,0.00,VWS V14.01,2013-09-25 01:50:00,
2013-09-24 20:54:00,67.1,53.2,29.89,East,80,1.0,8.0,61,0.00,,SCT065,0.00,VWS V14.01,2013-09-25 01:54:00,
2013-09-24 20:59:00,66.8,53.4,29.89,East,84,2.0,7.0,62,0.00,,SCT065,0.00,VWS V14.01,2013-09-25 01:59:00,
2013-09-24 21:00:00,66.8,52.9,29.89,East,91,5.0,8.0,61,0.00,,CLR,0.00,VWS V14.01,2013-09-25 02:00:00,
2013-09-24 21:04:00,66.4,53.0,29.89,East,79,3.0,9.0,62,0.00,,SCT065,0.00,VWS V14.01,2013-09-25 02:04:00,
2013-09-24 21:09:00,66.0,53.1,29.89,ESE,105,4.0,4.0,63,0.00,,SCT065,0.00,VWS V14.01,2013-09-25 02:09:00,
2013-09-24 21:10:00,66.1,53.2,29.89,East,87,0.0,9.0,63,0.00,,CLR,0.00,VWS V14.01,2013-09-25 02:10:00,
2013-09-24 21:14:00,65.6,52.7,29.89,WNW,282,2.0,5.0,63,0.00,,SCT065,0.00,VWS V14.01,2013-09-25 02:14:00,
2013-09-24 21:19:00,65.4,52.9,29.89,ENE,70,2.0,6.0,64,0.00,,SCT065,0.00,VWS V14.01,2013-09-25 02:19:00,
2013-09-24 21:20:00,65.5,53.0,29.89,East,98,4.0,5.0,64,0.00,,CLR,0.00,VWS V14.01,2013-09-25 02:20:00,
2013-09-24 21:24:00,65.1,52.6,29.89,East,85,1.0,7.0,64,0.00,,CLR,0.00,VWS V14.01,2013-09-25 02:24:00,
2013-09-24 21:29:00,64.9,52.9,29.89,East,94,2.0,5.0,65,0.00,,CLR,0.00,VWS V14.01,2013-09-25 02:29:00,
2013-09-24 21:30:00,65.0,53.0,29.89,ESE,108,3.0,7.0,65,0.00,,CLR,0.00,VWS V14.01,2013-09-25 02:30:00,
2013-09-24 21:34:00,64.6,52.6,29.89,ESE,105,1.0,5.0,65,0.00,,CLR,0.00,VWS V14.01,2013-09-25 02:34:00,
2013-09-24 21:39:00,64.3,52.7,29.89,NE,43,3.0,6.0,66,0.00,,CLR,0.00,VWS V14.01,2013-09-25 02:39:00,
2013-09-24 21:40:00,64.4,52.8,29.89,East,89,0.0,5.0,66,0.00,,CLR,0.00,VWS V14.01,2013-09-25 02:40:00,
2013-09-24 21:45:00,64.1,52.5,29.89,NNE,23,2.0,6.0,66,0.00,,CLR,0.00,VWS V14.01,2013-09-25 02:45:00,
2013-09-24 21:50:00,63.9,52.3,29.89,East,82,0.0,5.0,66,0.00,,CLR,0.00,VWS V14.01,2013-09-25 02:50:00,
2013-09-24 21:55:00,63.8,52.2,29.89,East,82,4.0,9.0,66,0.00,,CLR,0.00,VWS V14.01,2013-09-25 02:55:00,
2013-09-24 22:00:00,63.8,52.2,29.89,SE,126,6.0,8.0,66,0.00,,CLR,0.00,VWS V14.01,2013-09-25 03:00:00,
2013-09-24 22:05:00,63.6,52.0,29.90,East,79,3.0,8.0,66,0.00,,CLR,0.00,VWS V14.01,2013-09-25 03:05:00,
2013-09-24 22:10:00,63.5,52.4,29.90,ENE,61,3.0,7.0,67,0.00,,CLR,0.00,VWS V14.01,2013-09-25 03:10:00,
2013-09-24 22:15:00,63.3,52.2,29.90,NNE,29,3.0,7.0,67,0.00,,CLR,0.00,VWS V14.01,2013-09-25 03:15:00,
2013-09-24 22:20:00,63.0,51.9,29.90,ENE,78,3.0,5.0,67,0.00,,CLR,0.00,VWS V14.01,2013-09-25 03:20:00,
2013-09-24 22:25:00,62.9,52.2,29.90,East,89,3.0,9.0,68,0.00,,CLR,0.00,VWS V14.01,2013-09-25 03:25:00,
2013-09-24 22:30:00,62.8,52.1,29.90,East,88,1.0,6.0,68,0.00,,CLR,0.00,VWS V14.01,2013-09-25 03:30:00,
2013-09-24 22:35:00,62.5,51.8,29.90,ENE,75,0.0,6.0,68,0.00,,CLR,0.00,VWS V14.01,2013-09-25 03:35:00,
2013-09-24 22:40:00,62.3,52.0,29.90,ENE,63,3.0,7.0,69,0.00,,CLR,0.00,VWS V14.01,2013-09-25 03:40:00,
2013-09-24 22:45:00,62.1,51.8,29.90,ESE,123,5.0,11.0,69,0.00,,CLR,0.00,VWS V14.01,2013-09-25 03:45:00,
2013-09-24 22:50:00,61.9,51.6,29.90,ENE,63,2.0,5.0,69,0.00,,CLR,0.00,VWS V14.01,2013-09-25 03:50:00,
2013-09-24 22:55:00,61.7,51.8,29.90,ENE,61,2.0,8.0,70,0.00,,CLR,0.00,VWS V14.01,2013-09-25 03:55:00,
2013-09-24 23:00:00,61.5,51.6,29.90,NNE,23,1.0,7.0,70,0.00,,CLR,0.00,VWS V14.01,2013-09-25 04:00:00,
2013-09-24 23:01:00,61.4,51.5,29.90,NNE,23,0.0,7.0,70,0.00,,CLR,0.00,VWS V14.01,2013-09-25 04:01:00,
2013-09-24 23:02:00,61.4,51.9,29.90,East,87,4.0,10.0,71,0.00,,CLR,0.00,VWS V14.01,2013-09-25 04:02:00,
2013-09-24 23:03:00,61.4,51.9,29.91,East,91,2.0,10.0,71,0.00,,CLR,0.00,VWS V14.01,2013-09-25 04:03:00,
2013-09-24 23:04:00,61.3,51.8,29.91,East,97,5.0,10.0,71,0.00,,CLR,0.00,VWS V14.01,2013-09-25 04:04:00,
2013-09-24 23:09:00,61.1,51.6,29.90,ENE,78,5.0,5.0,71,0.00,,CLR,0.00,VWS V14.01,2013-09-25 04:09:00,
2013-09-24 23:10:00,61.1,51.6,29.90,East,91,1.0,10.0,71,0.00,,CLR,0.00,VWS V14.01,2013-09-25 04:10:00,
2013-09-24 23:14:00,60.9,51.8,29.91,East,86,2.0,8.0,72,0.00,,CLR,0.00,VWS V14.01,2013-09-25 04:14:00,
2013-09-24 23:19:00,60.7,52.0,29.91,East,80,1.0,4.0,73,0.00,,CLR,0.00,VWS V14.01,2013-09-25 04:19:00,
2013-09-24 23:20:00,60.7,52.0,29.91,East,84,1.0,8.0,73,0.00,,CLR,0.00,VWS V14.01,2013-09-25 04:20:00,
2013-09-24 23:24:00,60.4,52.1,29.91,East,82,5.0,6.0,74,0.00,,CLR,0.00,VWS V14.01,2013-09-25 04:24:00,
2013-09-24 23:29:00,60.2,51.9,29.91,East,97,3.0,5.0,74,0.00,,CLR,0.00,VWS V14.01,2013-09-25 04:29:00,
2013-09-24 23:30:00,60.3,52.0,29.91,East,79,1.0,7.0,74,0.00,,CLR,0.00,VWS V14.01,2013-09-25 04:30:00,
2013-09-24 23:34:00,60.0,52.1,29.91,East,91,4.0,6.0,75,0.00,,CLR,0.00,VWS V14.01,2013-09-25 04:34:00,
2013-09-24 23:39:00,59.9,52.3,29.91,NE,36,2.0,5.0,76,0.00,,CLR,0.00,VWS V14.01,2013-09-25 04:39:00,
2013-09-24 23:40:00,59.9,52.0,29.91,ESE,117,4.0,6.0,75,0.00,,CLR,0.00,VWS V14.01,2013-09-25 04:40:00,
2013-09-24 23:44:00,59.7,52.1,29.90,East,100,2.0,8.0,76,0.00,,CLR,0.00,VWS V14.01,2013-09-25 04:44:00,
2013-09-24 23:49:00,59.7,52.1,29.90,NE,34,1.0,4.0,76,0.00,,CLR,0.00,VWS V14.01,2013-09-25 04:49:00,
2013-09-24 23:50:00,59.7,52.1,29.90,ENE,76,3.0,9.0,76,0.00,,CLR,0.00,VWS V14.01,2013-09-25 04:50:00,
2013-09-24 23:55:00,59.6,52.4,29.90,East,86,2.0,6.0,77,0.00,,CLR,0.00,VWS V14.01,2013-09-25 04:55:00,